Regional Weather Roundup
Issued by NWS Kansas City/Pleasant Hill, MO

Home | Current Version | Previous Version | Graphics & Text | Print | Product List | Glossary Off
Versions: 1 2 3 4 5 6 7 8 9 10 11 12 13 14 15 16 17 18 19 20 21 22 23 24 25 26 27 28 29 30 31 32 33 34 35 36 37 38 39 40 41 42 43 44 45 46 47 48 49 50

000
ASUS43 KEAX 312110
RWREAX

WEATHER ROUNDUP FOR EASTERN KANSAS AND NORTHWEST MISSOURI
NATIONAL WEATHER SERVICE KANSAS CITY/PLEASANT HILL MO
400 PM CDT MON AUG 31 2015

KSZ040-057-103>105-MOZ028-029-037-043-312200-
...KANSAS CITY METROPOLITAN AREA...

CITY           SKY/WX    TMP DP  RH WIND       PRES   REMARKS
K.C. INTL      FAIR      90  67  46 S13       29.95F HX  93
K.C. DOWNTOWN  FAIR      91  69  48 S12G17    29.94F HX  96
LEES SUMMIT    FAIR      88  67  49 S9        29.97F HX  91
OLATHE - IXD   FAIR      88  72  58 S12       29.97F HX  94
OLATHE - OJC   FAIR      86  70  58 SW14      29.96F HX  90
LAWRENCE       FAIR      90  69  50 S10       29.94F HX  94

$$

MOZ001>008-011>017-020>025-030>033-038>040-044>046-053-054-312200-
...NORTHERN AND CENTRAL MISSOURI...

CITY           SKY/WX    TMP DP  RH WIND       PRES   REMARKS
ST. JOSEPH     FAIR      88  69  53 S12       29.93F HX  92
MOSBY          FAIR      88  64  45 S9        29.95F
WARRENSBURG    FAIR      90  64  43 S9        29.96F HX  91
WHITEMAN AFB   MOSUNNY   91  67  45 SW16      29.96F HX  94
CLINTON        FAIR      91  70  49 S9        29.97F HX  97
SEDALIA        FAIR      93  64  38 S13       29.99F HX  94
WARSAW         NOT AVBL
CHILLICOTHE      N/A     89  69  51 S10       29.96F HX  93
KIRKSVILLE     FAIR      89  69  51 S7G18     29.98F HX  93

$$

MOZ041-047>049-056>058-063>065-088>090-097-312200-
...EASTERN AND SOUTHERN MISSOURI...

CITY           SKY/WX    TMP DP  RH WIND       PRES   REMARKS
ST. LOUIS INTL PTSUNNY   90  70  51 VRB6      30.01F HX  95
SPIRIT OF STL  CLOUDY    91  72  53 VRB5      29.99F HX  98
COLUMBIA       FAIR      90  71  53 S12       29.99F HX  96
JEFFERSON CITY FAIR      92  66  42 S8        29.97F HX  94
ROLLA          FAIR      90  69  50 SW9       30.01F HX  94
OSAGE BEACH    FAIR      91  66  43 S12       30.00F HX  94
SPRINGFIELD    FAIR      88  68  51 S12       30.02F HX  91
BRANSON        PTSUNNY   82  70  65 S7        30.06F
JOPLIN         FAIR      89  67  47 SW13      29.99F HX  92
WEST PLAINS    PTSUNNY   87  66  49 S9        30.07F

$$

IAZ060-094-KSZ022-034>040-054-083-096-NEZ052-066-093-312200-
...KANSAS...SOUTHEAST NEBRASKA AND IOWA...

CITY           SKY/WX    TMP DP  RH WIND       PRES   REMARKS
TOPEKA         FAIR      90  68  48 SE13G20   29.92F HX  94
MANHATTAN      FAIR      93  69  45 SE14G22   29.89F HX  98
EMPORIA        FAIR      89  67  47 SE14G21   29.93F HX  92
CHANUTE        FAIR      89  71  55 S15       29.96F HX  95
WICHITA        FAIR      93  64  38 S16       29.91F HX  94
OMAHA          FAIR      86  67  52 S15       29.92F
LINCOLN        FAIR      87  68  52 S15       29.91F HX  90
FALLS CITY     FAIR      89  68  49 S9        29.92F HX  93
LAMONI         FAIR      85  71  63 S12       29.96F HX  90
DES MOINES     FAIR      87  71  58 S12       29.93F HX  93

$$



USA.gov is the U.S. government's official web portal to all federal, state and local government web resources and services.